Temp
-5 -5 -5 -5 -5 -5 -5 -5 -5 -5 -5 -5 -5 -5 -5 -5 -5 -5 -5 -4 -4 -4 -4 -4 -4 -4 -5 -5 -5 -5 -5 -5 -5 -5 -5 -5 -6 -5 -5 -5 -5 -5 -5 -5 -5 -6 -6 -6 -6 -6 -6 -6 -6 -6 -6 -6 -6 -6 -6 -6 -6 -6 -6
-5 -5 -5 -5 -5 -5 -5 -5 -5 -5 -5 -5 -5 -5 -5 -5 -5 -5 -5 -4 -4 -4 -4 -4 -4 -4 -5 -5 -5 -5 -5 -5 -5 -5 -5 -5 -6 -6 -6 -6 -6 -5 -5 -5 -5 -5 -5 -6 -6 -6 -6 -6 -6 -6 -6 -6 -6 -6 -6 -6 -6 -6 -6
-5 -5 -5 -5 -5 -5 -5 -4 -4 -4 -4 -5 -5 -5 -5 -5 -5 -5 -4 -4 -4 -4 -4 -4 -4 -5 -5 -5 -5 -5 -5 -5 -5 -5 -5 -5 -5 -6 -6 -6 -6 -6 -6 -5 -5 -5 -5 -5 -6 -6 -6 -6 -6 -6 -6 -6 -6 -6 -6 -6 -7 -7 -6
-5 -5 -5 -5 -5 -5 -5 -4 -4 -4 -4 -4 -4 -5 -5 -5 -5 -4 -4 -4 -4 -4 -4 -4 -5 -5 -5 -5 -5 -5 -5 -5 -6 -6 -6 -6 -6 -6 -6 -6 -6 -6 -6 -6 -6 -6 -5 -5 -5 -6 -6 -6 -6 -6 -6 -6 -6 -6 -6 -6 -6 -7 -7
-5 -5 -5 -5 -5 -5 -5 -5 -4 -4 -4 -4 -4 -4 -4 -4 -4 -4 -4 -4 -4 -4 -4 -5 -5 -5 -5 -5 -5 -5 -6 -6 -6 -6 -6 -6 -6 -6 -6 -6 -6 -6 -6 -6 -6 -6 -6 -6 -6 -6 -6 -6 -6 -6 -6 -6 -7 -7 -6 -6 -6 -7 -7
-5 -5 -5 -5 -5 -5 -5 -5 -5 -4 -4 -4 -4 -4 -4 -4 -4 -4 -4 -4 -4 -4 -4 -4 -5 -5 -5 -5 -5 -5 -6 -6 -6 -6 -6 -6 -6 -6 -6 -6 -6 -6 -6 -6 -6 -6 -6 -6 -6 -6 -6 -6 -6 -6 -6 -6 -6 -7 -7 -6 -7 -7 -6
-5 -5 -5 -5 -5 -5 -5 -5 -5 -5 -5 -5 -5 -5 -4 -4 -4 -4 -4 -4 -4 -4 -4 -4 -5 -5 -5 -5 -5 -5 -6 -6 -6 -6 -6 -6 -6 -6 -6 -6 -6 -6 -7 -7 -7 -7 -7 -7 -7 -7 -7 -6 -6 -6 -6 -6 -6 -6 -7 -7 -7 -7 -6
-5 -5 -5 -5 -5 -5 -5 -5 -5 -5 -5 -5 -5 -5 -5 -4 -4 -4 -4 -5 -5 -5 -5 -5 -5 -5 -5 -5 -5 -5 -6 -6 -6 -6 -6 -6 -6 -6 -6 -6 -6 -7 -7 -7 -7 -7 -7 -7 -7 -7 -7 -7 -7 -7 -7 -7 -7 -6 -6 -6 -7 -7 -7
-5 -5 -5 -5 -5 -5 -5 -4 -4 -4 -4 -5 -5 -5 -4 -4 -4 -4 -5 -5 -5 -5 -5 -5 -5 -5 -5 -5 -6 -6 -6 -6 -6 -6 -6 -6 -6 -6 -6 -6 -6 -7 -7 -7 -7 -7 -8 -8 -8 -8 -8 -8 -8 -8 -7 -7 -7 -7 -7 -6 -6 -7 -7
-5 -5 -5 -5 -5 -5 -5 -5 -4 -4 -4 -4 -4 -5 -4 -4 -4 -4 -5 -5 -5 -5 -5 -5 -5 -5 -5 -6 -6 -6 -6 -6 -6 -6 -6 -6 -6 -6 -6 -6 -6 -7 -7 -7 -7 -8 -8 -8 -8 -8 -8 -8 -8 -8 -8 -8 -7 -7 -7 -7 -7 -6 -7
-5 -5 -5 -5 -5 -5 -5 -4 -4 -4 -4 -4 -4 -4 -4 -4 -4 -5 -5 -5 -5 -5 -5 -5 -5 -5 -5 -5 -6 -6 -6 -6 -6 -6 -7 -7 -7 -6 -6 -6 -7 -7 -7 -7 -7 -8 -8 -8 -9 -9 -9 -8 -8 -8 -8 -8 -8 -8 -8 -7 -7 -7 -7
-5 -5 -5 -5 -5 -5 -5 -4 -4 -4 -4 -4 -4 -4 -4 -4 -4 -5 -5 -5 -5 -5 -5 -5 -5 -5 -5 -5 -6 -6 -6 -6 -6 -6 -7 -7 -7 -7 -7 -7 -7 -7 -7 -7 -7 -8 -8 -9 -9 -9 -9 -9 -9 -8 -9 -8 -8 -8 -8 -8 -7 -7 -7
-5 -5 -5 -5 -5 -5 -5 -4 -4 -4 -4 -4 -4 -4 -4 -5 -5 -5 -5 -5 -5 -5 -5 -5 -5 -5 -5 -5 -6 -6 -6 -6 -6 -6 -7 -7 -7 -7 -7 -7 -7 -7 -7 -7 -7 -8 -8 -9 -9 -9 -9 -9 -9 -9 -9 -9 -9 -9 -8 -9 -8 -8 -7
-5 -5 -5 -5 -5 -5 -5 -4 -4 -4 -4 -4 -4 -5 -5 -5 -5 -5 -5 -5 -5 -5 -5 -5 -5 -5 -5 -5 -6 -6 -6 -6 -6 -6 -7 -7 -7 -7 -7 -7 -7 -7 -8 -7 -8 -8 -8 -9 -9 -9 -9 -9 -9 -9 -9 -9 -9 -9 -8 -9 -9 -8 -8
-5 -5 -5 -5 -5 -5 -5 -4 -4 -4 -4 -5 -5 -5 -5 -5 -5 -5 -5 -5 -5 -5 -5 -5 -5 -6 -6 -6 -6 -6 -6 -7 -7 -7 -7 -7 -7 -7 -7 -7 -7 -8 -8 -8 -8 -8 -8 -8 -8 -9 -9 -9 -9 -9 -9 -9 -8 -9 -9 -8 -9 -9 -8
-5 -5 -5 -5 -5 -5 -5 -5 -5 -5 -5 -5 -5 -5 -5 -5 -5 -5 -5 -5 -5 -5 -5 -5 -6 -6 -6 -6 -6 -6 -7 -7 -7 -7 -7 -7 -7 -7 -7 -7 -7 -7 -8 -8 -8 -8 -8 -8 -8 -8 -9 -9 -9 -9 -9 -9 -8 -9 -9 -9 -9 -9 -9
-5 -5 -5 -5 -5 -5 -5 -5 -5 -5 -5 -5 -5 -5 -5 -5 -5 -5 -5 -5 -5 -5 -5 -6 -6 -6 -6 -6 -6 -6 -7 -7 -7 -7 -7 -7 -7 -7 -7 -7 -7 -7 -8 -8 -8 -8 -8 -8 -8 -8 -8 -8 -9 -9 -9 -9 -9 -8 -9 -9 -9 -9 -9
-5 -5 -5 -5 -5 -5 -5 -5 -5 -5 -5 -5 -5 -5 -5 -5 -5 -5 -5 -5 -5 -5 -5 -6 -6 -6 -6 -6 -6 -7 -7 -7 -7 -7 -7 -7 -7 -7 -7 -7 -7 -8 -8 -8 -8 -8 -8 -8 -8 -8 -8 -8 -9 -9 -9 -9 -9 -9 -9 -9 -9 -9 -9
-5 -5 -5 -5 -5 -5 -5 -5 -5 -5 -5 -5 -5 -5 -5 -5 -5 -5 -5 -5 -5 -5 -6 -6 -6 -6 -6 -6 -6 -7 -7 -7 -7 -7 -7 -7 -7 -7 -8 -8 -8 -8 -8 -8 -8 -8 -8 -8 -8 -8 -8 -8 -8 -9 -9 -9 -9 -9 -9 -9 -9 -9 -9
-5 -5 -5 -5 -5 -5 -5 -5 -5 -5 -5 -5 -5 -5 -5 -5 -5 -5 -5 -6 -6 -6 -6 -6 -6 -6 -6 -6 -7 -7 -7 -7 -7 -7 -7 -7 -8 -8 -8 -8 -8 -8 -8 -8 -8 -8 -8 -8 -8 -8 -8 -8 -8 -8 -9 -9 -9 -9 -9 -9 -9 -9 -9
-6 -6 -5 -5 -5 -5 -5 -5 -5 -6 -6 -6 -6 -6 -6 -6 -6 -5 -6 -6 -6 -6 -6 -6 -6 -6 -6 -7 -7 -7 -7 -7 -7 -7 -7 -8 -8 -8 -8 -8 -8 -8 -8 -8 -8 -8 -8 -8 -8 -8 -8 -8 -8 -9 -9 -9 -9 -9 -9 -9 -9 -9 -9
-6 -6 -6 -5 -5 -5 -6 -6 -6 -6 -6 -6 -6 -6 -6 -6 -6 -6 -6 -6 -6 -6 -6 -6 -6 -6 -7 -7 -7 -7 -7 -7 -7 -7 -8 -8 -8 -8 -8 -8 -8 -8 -8 -8 -8 -8 -8 -8 -8 -8 -8 -9 -9 -9 -9 -9 -9 -9 -9 -9 -9 -9 -9
-6 -6 -6 -6 -6 -6 -6 -6 -6 -6 -6 -6 -6 -6 -6 -6 -6 -6 -6 -6 -6 -6 -6 -6 -7 -7 -7 -7 -7 -7 -7 -7 -7 -8 -8 -8 -8 -8 -8 -8 -8 -8 -8 -8 -8 -8 -8 -8 -8 -8 -8 -9 -9 -9 -9 -9 -9 -9 -9 -9 -9 -9 -9
-6 -6 -6 -6 -6 -6 -6 -6 -6 -6 -6 -6 -6 -6 -6 -6 -6 -6 -6 -6 -6 -6 -7 -7 -7 -7 -7 -8 -8 -8 -8 -8 -8 -8 -8 -8 -8 -8 -8 -8 -8 -8 -8 -8 -8 -8 -8 -8 -8 -8 -8 -9 -9 -9 -9 -9 -9 -9 -9 -9 -9 -9 -9
-6 -6 -6 -6 -6 -6 -6 -6 -6 -7 -6 -6 -6 -6 -6 -6 -6 -6 -7 -7 -7 -7 -7 -7 -7 -8 -8 -8 -8 -8 -8 -8 -8 -8 -8 -8 -8 -8 -8 -8 -8 -8 -8 -8 -8 -8 -8 -8 -8 -9 -9 -9 -9 -9 -9 -9 -9 -9 -9 -9 -9 -9 -9
-6 -6 -6 -6 -6 -6 -6 -6 -6 -7 -7 -6 -6 -7 -7 -6 -7 -7 -7 -7 -7 -7 -7 -7 -8 -8 -8 -8 -8 -8 -8 -8 -8 -8 -8 -8 -8 -8 -8 -8 -8 -8 -8 -9 -9 -9 -9 -9 -9 -9 -9 -9 -9 -9 -9 -9 -9 -9 -9 -9 -9 -9 -9
-7 -7 -7 -7 -6 -6 -6 -6 -7 -7 -7 -6 -7 -7 -7 -7 -7 -7 -7 -7 -7 -7 -7 -7 -8 -8 -8 -8 -8 -8 -8 -8 -8 -8 -8 -8 -8 -8 -9 -9 -9 -9 -9 -9 -9 -9 -9 -9 -9 -9 -9 -9 -9 -9 -9 -9 -10 -10 -9 -9 -9 -9 -10
-7 -7 -7 -7 -7 -7 -7 -7 -7 -7 -7 -7 -7 -7 -7 -7 -7 -7 -7 -7 -7 -7 -7 -7 -8 -8 -8 -8 -8 -8 -8 -8 -8 -8 -8 -8 -8 -9 -9 -9 -9 -9 -9 -9 -9 -9 -9 -9 -9 -9 -9 -9 -9 -9 -10 -10 -10 -10 -9 -9 -9 -10 -10
-7 -7 -7 -7 -7 -7 -7 -7 -7 -7 -7 -7 -7 -7 -7 -7 -7 -7 -7 -8 -8 -8 -8 -8 -8 -8 -8 -8 -8 -8 -8 -8 -9 -9 -9 -9 -9 -9 -9 -9 -9 -9 -9 -9 -9 -9 -9 -9 -9 -9 -9 -9 -9 -10 -10 -10 -10 -10 -10 -10 -10 -10 -10
-7 -7 -7 -7 -7 -7 -7 -7 -7 -7 -7 -7 -7 -7 -7 -7 -7 -7 -8 -8 -8 -8 -8 -8 -8 -8 -8 -8 -8 -8 -9 -9 -9 -9 -9 -9 -9 -9 -9 -9 -9 -9 -9 -9 -9 -10 -10 -10 -10 -10 -10 -10 -10 -10 -10 -10 -10 -10 -10 -10 -10 -10 -10
-7 -7 -7 -7 -7 -7 -7 -7 -7 -7 -7 -7 -7 -7 -7 -7 -7 -7 -8 -8 -8 -8 -8 -8 -8 -8 -8 -8 -9 -9 -9 -9 -9 -9 -9 -9 -9 -9 -9 -9 -9 -9 -9 -10 -10 -10 -10 -10 -10 -10 -10 -10 -10 -10 -10 -10 -10 -10 -10 -10 -10 -10 -10
-8 -8 -8 -8 -8 -8 -8 -8 -8 -8 -8 -8 -8 -8 -8 -8 -8 -8 -8 -8 -8 -8 -8 -8 -8 -8 -8 -9 -9 -9 -9 -9 -9 -9 -9 -9 -9 -9 -9 -9 -9 -9 -10 -10 -10 -10 -10 -10 -11 -11 -11 -11 -11 -11 -11 -11 -11 -10 -10 -10 -10 -10 -10
-8 -8 -8 -8 -8 -8 -8 -8 -8 -8 -8 -8 -8 -8 -8 -8 -8 -8 -8 -8 -8 -8 -8 -9 -9 -8 -9 -9 -9 -9 -9 -9 -9 -9 -9 -9 -9 -9 -10 -10 -10 -10 -10 -10 -10 -10 -10 -11 -11 -11 -11 -11 -11 -11 -11 -11 -11 -10 -10 -10 -10 -10 -10
-8 -8 -8 -8 -8 -8 -8 -8 -8 -8 -8 -8 -8 -8 -8 -8 -8 -8 -8 -8 -8 -8 -9 -9 -9 -9 -9 -9 -9 -9 -9 -9 -9 -9 -9 -10 -10 -10 -10 -10 -10 -10 -10 -11 -10 -10 -11 -11 -11 -11 -11 -11 -11 -11 -11 -11 -11 -11 -11 -10 -10 -10 -10
-8 -8 -8 -8 -8 -8 -8 -8 -8 -8 -8 -8 -8 -8 -8 -8 -9 -9 -9 -9 -9 -9 -9 -9 -9 -9 -9 -9 -9 -9 -9 -9 -10 -10 -10 -10 -10 -10 -11 -11 -11 -11 -11 -11 -11 -11 -11 -11 -11 -11 -11 -11 -11 -11 -11 -11 -11 -11 -11 -10 -10 -10 -10
-8 -8 -8 -8 -8 -8 -8 -8 -8 -8 -8 -8 -9 -9 -9 -9 -9 -9 -9 -9 -9 -9 -9 -9 -9 -9 -9 -9 -9 -10 -10 -10 -10 -10 -10 -10 -11 -11 -11 -11 -11 -11 -11 -11 -11 -12 -11 -11 -11 -12 -12 -12 -12 -11 -11 -11 -11 -11 -11 -10 -10 -10 -11
-8 -8 -8 -8 -8 -8 -8 -8 -8 -8 -9 -9 -9 -9 -9 -9 -9 -9 -9 -9 -9 -9 -9 -9 -9 -9 -9 -9 -10 -10 -10 -10 -10 -11 -11 -11 -11 -11 -11 -11 -12 -12 -12 -12 -12 -12 -12 -12 -12 -12 -12 -12 -12 -12 -11 -11 -11 -11 -11 -11 -11 -10 -10
-8 -8 -8 -8 -8 -8 -8 -9 -9 -9 -9 -9 -9 -9 -9 -9 -9 -9 -9 -9 -9 -9 -9 -9 -9 -9 -10 -10 -10 -10 -10 -10 -11 -11 -11 -11 -12 -12 -12 -12 -12 -12 -12 -12 -12 -12 -12 -12 -12 -12 -12 -12 -12 -12 -11 -11 -11 -11 -11 -11 -11 -11 -11
Height
5904 5904 5903 5903 5903 5903 5903 5903 5903 5903 5903 5902 5902 5901 5900 5900 5899 5898 5897 5896 5895 5894 5894 5893 5892 5891 5891 5890 5889 5889 5888 5887 5886 5885 5884 5883 5882 5880 5879 5878 5877 5876 5876 5875 5874 5873 5873 5873 5872 5872 5873 5873 5873 5873 5873 5873 5873 5872 5872 5873 5874 5875 5877
5903 5903 5902 5902 5901 5901 5901 5902 5902 5902 5902 5902 5902 5901 5900 5900 5899 5898 5897 5896 5895 5894 5893 5892 5891 5890 5889 5889 5888 5887 5886 5885 5884 5883 5882 5881 5880 5879 5878 5876 5875 5874 5873 5873 5872 5871 5871 5870 5870 5869 5869 5870 5870 5871 5870 5870 5869 5869 5869 5869 5870 5872 5873
5903 5902 5901 5900 5899 5900 5900 5900 5901 5901 5901 5901 5901 5900 5900 5899 5898 5897 5896 5895 5894 5893 5892 5891 5890 5889 5888 5887 5886 5885 5884 5883 5883 5881 5880 5879 5878 5877 5875 5874 5873 5872 5871 5870 5869 5868 5868 5867 5867 5866 5866 5866 5866 5867 5867 5866 5866 5866 5867 5867 5868 5869 5870
5903 5901 5899 5898 5898 5898 5898 5899 5899 5899 5900 5900 5900 5899 5899 5898 5897 5896 5895 5894 5893 5892 5891 5890 5888 5887 5886 5885 5884 5883 5882 5881 5880 5879 5878 5877 5875 5874 5873 5871 5870 5869 5868 5866 5866 5865 5864 5863 5863 5862 5862 5861 5862 5862 5863 5863 5863 5863 5864 5865 5866 5866 5867
5901 5900 5898 5897 5896 5897 5897 5897 5898 5898 5898 5898 5898 5897 5897 5897 5896 5895 5894 5893 5892 5891 5890 5888 5887 5886 5885 5884 5883 5881 5880 5879 5877 5876 5875 5873 5872 5871 5869 5868 5866 5865 5864 5862 5861 5861 5860 5859 5858 5857 5857 5856 5857 5857 5858 5859 5859 5859 5860 5861 5862 5862 5863
5898 5898 5896 5896 5896 5895 5895 5895 5896 5896 5895 5896 5895 5895 5895 5895 5894 5893 5892 5891 5890 5889 5888 5887 5886 5884 5883 5882 5881 5880 5878 5877 5875 5873 5872 5870 5869 5867 5866 5864 5862 5861 5860 5858 5857 5856 5855 5854 5854 5853 5852 5852 5851 5851 5852 5854 5854 5855 5856 5857 5857 5858 5859
5896 5895 5895 5895 5895 5895 5895 5895 5895 5895 5894 5893 5893 5893 5893 5892 5892 5891 5890 5889 5888 5887 5886 5884 5883 5882 5881 5880 5878 5877 5876 5874 5873 5871 5869 5868 5866 5864 5863 5861 5859 5857 5856 5854 5853 5852 5851 5850 5849 5849 5848 5847 5846 5845 5846 5847 5848 5850 5851 5852 5852 5853 5854
5894 5894 5894 5893 5893 5893 5894 5894 5894 5894 5893 5892 5892 5891 5891 5890 5889 5889 5887 5887 5885 5884 5883 5882 5880 5879 5878 5877 5875 5874 5873 5871 5870 5868 5867 5865 5863 5861 5859 5858 5856 5854 5852 5850 5849 5847 5846 5846 5845 5844 5844 5843 5842 5841 5841 5841 5842 5843 5845 5847 5848 5848 5849
5892 5892 5892 5892 5891 5891 5892 5892 5892 5892 5892 5891 5891 5890 5889 5888 5887 5887 5886 5884 5883 5882 5881 5879 5877 5876 5874 5873 5872 5871 5869 5868 5866 5865 5863 5862 5860 5859 5857 5854 5852 5851 5849 5847 5845 5843 5842 5841 5841 5840 5840 5839 5838 5837 5836 5836 5836 5837 5838 5841 5842 5843 5843
5890 5890 5890 5890 5890 5890 5890 5890 5890 5890 5890 5890 5889 5888 5887 5886 5885 5884 5884 5882 5881 5880 5879 5877 5875 5874 5872 5871 5869 5868 5866 5864 5863 5861 5859 5858 5856 5855 5853 5851 5849 5847 5845 5844 5842 5840 5838 5837 5837 5837 5836 5835 5835 5834 5833 5832 5832 5832 5833 5834 5835 5837 5838
5890 5890 5890 5889 5889 5889 5889 5889 5889 5888 5888 5888 5887 5886 5885 5885 5883 5882 5881 5880 5879 5878 5876 5875 5873 5872 5870 5868 5867 5865 5864 5862 5860 5858 5856 5854 5852 5851 5849 5848 5846 5843 5842 5840 5838 5836 5834 5833 5833 5833 5832 5832 5831 5830 5829 5828 5827 5827 5827 5828 5829 5830 5832
5890 5889 5889 5888 5888 5887 5887 5887 5887 5887 5886 5885 5885 5884 5883 5883 5881 5880 5879 5878 5877 5875 5874 5872 5870 5869 5867 5866 5865 5863 5862 5860 5858 5856 5854 5852 5850 5847 5845 5844 5842 5839 5837 5835 5833 5831 5830 5829 5829 5829 5828 5828 5827 5826 5825 5824 5823 5822 5823 5823 5823 5824 5826
5888 5887 5887 5887 5887 5887 5886 5886 5886 5885 5885 5884 5883 5882 5881 5880 5879 5878 5876 5875 5874 5872 5871 5869 5868 5866 5865 5863 5862 5860 5859 5857 5855 5853 5851 5849 5847 5845 5842 5840 5838 5836 5833 5831 5829 5827 5826 5825 5825 5825 5824 5824 5823 5822 5821 5820 5819 5818 5818 5818 5817 5818 5819
5886 5885 5885 5885 5885 5885 5885 5885 5884 5884 5883 5882 5881 5880 5879 5877 5876 5875 5873 5872 5871 5869 5868 5866 5865 5863 5861 5860 5858 5857 5855 5854 5852 5850 5848 5846 5844 5842 5840 5837 5835 5832 5830 5827 5825 5823 5822 5821 5821 5821 5820 5820 5819 5818 5817 5815 5814 5813 5814 5813 5812 5812 5813
5884 5884 5883 5883 5884 5884 5883 5883 5882 5882 5881 5880 5879 5877 5876 5874 5873 5872 5870 5869 5867 5866 5865 5863 5861 5860 5858 5856 5855 5853 5851 5850 5848 5846 5845 5843 5841 5839 5837 5834 5832 5830 5827 5824 5821 5820 5819 5818 5817 5817 5816 5815 5814 5813 5812 5811 5809 5808 5808 5808 5807 5807 5808
5882 5882 5882 5881 5882 5882 5881 5881 5880 5879 5878 5877 5876 5875 5873 5871 5870 5869 5867 5866 5864 5863 5861 5860 5858 5857 5855 5853 5851 5849 5847 5846 5844 5843 5841 5839 5837 5835 5833 5831 5829 5826 5824 5821 5818 5816 5815 5814 5813 5813 5812 5811 5809 5808 5807 5806 5805 5804 5803 5803 5802 5802 5803
5880 5880 5879 5879 5879 5879 5878 5878 5877 5876 5875 5874 5873 5872 5870 5869 5867 5866 5864 5863 5861 5860 5858 5856 5855 5853 5851 5849 5847 5846 5844 5842 5841 5839 5837 5835 5833 5831 5829 5827 5825 5823 5820 5818 5815 5813 5812 5811 5810 5809 5808 5806 5805 5803 5802 5801 5800 5799 5798 5798 5797 5797 5798
5878 5877 5877 5876 5876 5876 5875 5874 5873 5872 5872 5871 5869 5868 5867 5865 5864 5862 5860 5859 5857 5856 5854 5852 5851 5849 5847 5845 5843 5842 5840 5839 5837 5835 5833 5831 5829 5828 5825 5823 5821 5819 5816 5814 5812 5810 5808 5806 5805 5804 5803 5802 5800 5799 5798 5796 5795 5794 5793 5793 5792 5791 5792
5875 5875 5874 5873 5873 5873 5872 5870 5870 5869 5868 5867 5866 5864 5863 5861 5860 5858 5856 5854 5853 5851 5849 5848 5846 5844 5842 5840 5839 5837 5836 5834 5833 5831 5829 5827 5825 5823 5821 5819 5817 5815 5813 5811 5808 5806 5804 5802 5801 5800 5798 5797 5796 5794 5793 5792 5791 5789 5788 5788 5787 5787 5787
5872 5872 5871 5870 5870 5869 5868 5867 5866 5865 5864 5863 5862 5860 5859 5857 5855 5854 5852 5850 5848 5846 5845 5843 5841 5839 5837 5836 5834 5832 5831 5829 5828 5826 5825 5823 5821 5819 5817 5815 5813 5810 5808 5806 5804 5802 5800 5798 5797 5795 5793 5792 5791 5789 5788 5787 5786 5784 5783 5783 5782 5782 5782
5869 5869 5868 5867 5867 5866 5865 5864 5863 5862 5860 5859 5857 5856 5854 5853 5851 5849 5847 5845 5843 5842 5840 5838 5837 5835 5833 5831 5829 5827 5826 5824 5823 5822 5820 5818 5816 5814 5812 5810 5808 5806 5804 5802 5800 5798 5796 5794 5792 5790 5789 5787 5785 5784 5783 5782 5781 5780 5779 5778 5777 5777 5777
5867 5866 5864 5863 5863 5863 5862 5860 5859 5858 5856 5855 5853 5851 5850 5848 5846 5844 5842 5840 5839 5837 5836 5834 5832 5830 5828 5826 5824 5823 5821 5820 5818 5817 5815 5813 5811 5809 5807 5805 5803 5802 5800 5798 5796 5793 5791 5790 5788 5786 5784 5782 5780 5779 5778 5777 5776 5775 5774 5773 5772 5772 5772
5864 5863 5862 5861 5860 5859 5858 5857 5855 5853 5852 5850 5849 5847 5845 5843 5841 5839 5837 5836 5834 5833 5831 5829 5828 5826 5824 5822 5820 5818 5817 5815 5814 5812 5810 5808 5806 5804 5803 5801 5799 5797 5795 5793 5791 5789 5787 5785 5783 5781 5779 5777 5775 5774 5773 5772 5771 5770 5769 5768 5768 5767 5767
5860 5859 5859 5858 5857 5856 5855 5853 5852 5850 5848 5846 5844 5842 5840 5839 5837 5835 5833 5832 5830 5829 5827 5825 5823 5821 5819 5818 5816 5814 5812 5811 5809 5807 5805 5803 5801 5800 5798 5796 5794 5792 5790 5788 5786 5784 5782 5780 5778 5776 5774 5772 5770 5768 5767 5766 5765 5765 5764 5763 5762 5762 5761
5856 5855 5855 5854 5853 5852 5851 5849 5848 5846 5844 5842 5840 5838 5836 5835 5833 5832 5830 5828 5826 5824 5823 5821 5819 5817 5815 5813 5811 5809 5808 5806 5804 5802 5800 5798 5797 5794 5793 5791 5789 5786 5784 5782 5781 5779 5777 5775 5773 5771 5769 5767 5765 5763 5762 5761 5760 5759 5759 5758 5757 5756 5756
5852 5851 5850 5849 5849 5848 5846 5845 5844 5842 5839 5838 5837 5834 5832 5831 5829 5828 5826 5824 5822 5820 5819 5817 5815 5813 5811 5809 5807 5805 5803 5801 5799 5797 5795 5793 5791 5789 5787 5785 5783 5781 5779 5777 5775 5773 5772 5769 5768 5766 5764 5762 5760 5758 5757 5756 5755 5754 5753 5752 5752 5751 5751
5849 5848 5846 5845 5844 5843 5842 5841 5840 5837 5835 5834 5832 5830 5829 5827 5825 5823 5821 5819 5818 5816 5815 5812 5810 5809 5807 5804 5803 5800 5798 5796 5794 5792 5790 5787 5786 5784 5782 5780 5778 5776 5773 5771 5769 5767 5766 5764 5762 5760 5759 5757 5755 5753 5752 5750 5750 5749 5748 5747 5746 5746 5746
5846 5845 5843 5842 5840 5839 5838 5837 5835 5833 5832 5830 5828 5827 5825 5823 5821 5819 5817 5815 5813 5811 5810 5808 5806 5804 5802 5800 5798 5795 5793 5791 5789 5786 5784 5782 5780 5778 5776 5774 5772 5770 5768 5765 5763 5761 5760 5758 5756 5755 5753 5751 5749 5748 5746 5745 5744 5743 5742 5741 5741 5741 5741
5843 5841 5839 5838 5836 5835 5834 5833 5830 5829 5828 5826 5824 5823 5820 5818 5817 5815 5813 5811 5809 5807 5805 5803 5801 5799 5797 5795 5793 5790 5788 5785 5783 5781 5779 5776 5774 5772 5771 5768 5766 5764 5762 5760 5757 5755 5753 5752 5750 5748 5747 5746 5744 5742 5740 5739 5738 5736 5735 5735 5735 5735 5736
5839 5837 5835 5834 5832 5830 5830 5828 5826 5824 5823 5821 5820 5818 5816 5814 5812 5810 5808 5806 5804 5802 5800 5798 5796 5794 5792 5789 5787 5785 5782 5780 5777 5775 5773 5771 5769 5766 5764 5762 5760 5758 5756 5754 5751 5749 5747 5745 5744 5742 5741 5740 5738 5736 5735 5733 5732 5731 5731 5730 5730 5730 5730
5835 5833 5831 5830 5828 5827 5826 5824 5822 5820 5819 5817 5815 5813 5812 5810 5808 5806 5804 5801 5799 5797 5795 5793 5791 5788 5786 5784 5782 5779 5777 5774 5772 5769 5767 5765 5763 5760 5758 5756 5754 5752 5750 5747 5745 5743 5741 5739 5737 5736 5734 5733 5732 5730 5729 5728 5727 5726 5726 5726 5726 5725 5726
5831 5829 5828 5826 5824 5823 5821 5820 5818 5817 5815 5813 5811 5809 5807 5805 5803 5801 5799 5797 5795 5793 5791 5788 5786 5783 5781 5779 5776 5774 5771 5769 5766 5764 5761 5759 5757 5754 5752 5750 5747 5745 5743 5741 5738 5736 5735 5733 5731 5729 5728 5727 5725 5724 5723 5722 5721 5721 5720 5720 5720 5720 5720
5827 5825 5824 5822 5821 5819 5817 5816 5814 5812 5811 5809 5807 5804 5802 5800 5798 5796 5794 5792 5790 5788 5785 5783 5780 5778 5776 5773 5771 5768 5765 5763 5761 5758 5756 5753 5750 5748 5745 5743 5740 5738 5736 5734 5732 5730 5728 5726 5725 5723 5721 5720 5719 5718 5717 5716 5716 5715 5715 5714 5714 5714 5714
5823 5822 5820 5818 5817 5815 5814 5812 5810 5808 5806 5804 5802 5800 5798 5795 5793 5791 5789 5787 5785 5783 5780 5778 5775 5773 5770 5768 5765 5762 5760 5757 5755 5752 5750 5747 5744 5741 5739 5736 5734 5732 5729 5727 5725 5723 5722 5720 5718 5717 5715 5714 5713 5713 5712 5711 5710 5710 5709 5709 5710 5710 5710
5819 5818 5816 5815 5813 5812 5810 5808 5806 5804 5802 5800 5798 5796 5793 5791 5789 5787 5785 5783 5780 5778 5775 5773 5770 5767 5765 5762 5759 5757 5754 5751 5748 5746 5743 5740 5738 5735 5733 5730 5728 5726 5724 5721 5718 5716 5715 5714 5712 5711 5709 5708 5708 5707 5707 5706 5705 5704 5704 5704 5705 5705 5705
5815 5814 5812 5811 5809 5807 5806 5804 5802 5800 5798 5796 5794 5792 5789 5787 5785 5783 5781 5778 5776 5773 5770 5767 5765 5762 5759 5756 5754 5751 5748 5745 5742 5739 5736 5734 5731 5729 5727 5724 5722 5719 5718 5716 5713 5711 5709 5707 5706 5705 5704 5703 5703 5702 5702 5702 5701 5700 5700 5701 5701 5701 5701
5811 5810 5808 5807 5805 5803 5802 5800 5798 5796 5794 5792 5790 5788 5785 5783 5781 5778 5776 5774 5771 5768 5765 5762 5760 5757 5754 5751 5748 5744 5741 5738 5735 5732 5730 5727 5725 5723 5721 5719 5717 5714 5711 5709 5708 5706 5704 5702 5701 5700 5698 5698 5698 5698 5697 5697 5697 5697 5697 5697 5697 5698 5698
5808 5806 5804 5803 5801 5799 5798 5796 5794 5792 5790 5788 5786 5784 5781 5779 5777 5774 5772 5769 5766 5763 5760 5757 5754 5751 5748 5745 5742 5738 5735 5732 5729 5726 5723 5720 5718 5716 5714 5713 5712 5710 5707 5704 5702 5701 5699 5698 5696 5695 5694 5693 5693 5693 5693 5693 5693 5694 5694 5694 5694 5695 5695
Wind_Speed
4 4 4 5 5 5 6 5 6 6 7 8 9 11 12 14 16 17 18 18 18 18 18 17 17 16 16 17 18 18 20 21 21 22 23 23 23 24 24 25 25 25 26 26 26 27 27 26 26 25 24 23 22 20 20 21 22 23 26 29 31 31 32
4 5 5 5 6 6 7 6 7 7 7 8 9 10 11 13 14 16 17 18 19 19 19 18 18 18 18 18 19 20 21 22 23 23 24 24 24 25 25 25 26 26 26 27 27 27 28 28 28 28 27 26 25 23 22 23 24 24 25 27 30 30 31
5 6 6 6 7 7 8 8 8 8 8 9 9 10 12 13 14 15 17 18 19 19 19 19 19 19 19 20 20 21 22 23 24 24 24 25 25 26 26 27 27 27 27 28 28 28 29 29 29 29 29 28 27 26 25 26 26 26 26 26 27 29 31
6 7 7 7 7 8 9 10 10 10 10 10 11 12 13 14 14 16 17 18 19 20 20 20 20 20 20 21 21 23 24 25 25 26 26 26 26 27 28 28 29 29 29 29 28 29 29 30 30 31 31 31 30 29 28 28 28 28 28 26 26 28 30
6 7 7 8 8 9 10 11 11 12 12 12 12 13 14 15 15 16 18 19 20 21 21 21 21 21 21 22 22 24 25 26 27 27 28 28 28 29 29 30 30 30 30 30 29 29 29 30 30 31 32 33 33 32 31 31 31 31 30 28 27 29 30
6 7 7 8 9 10 12 13 13 14 15 14 14 15 16 16 17 18 19 20 21 22 22 22 22 22 22 23 23 24 26 27 28 29 29 30 30 30 31 31 31 31 31 31 30 30 29 29 30 31 32 33 34 34 33 33 33 33 32 31 30 30 31
7 7 7 8 8 9 11 12 13 14 16 17 17 18 19 18 19 20 20 21 23 24 24 24 25 24 24 24 25 26 27 28 29 30 30 31 31 31 32 32 32 32 32 32 32 31 30 29 29 30 30 32 33 35 35 35 34 34 33 33 33 33 33
8 7 7 9 9 9 10 11 13 13 14 16 18 19 19 20 20 21 22 23 24 25 26 26 27 27 27 27 27 27 28 29 30 31 31 31 32 32 33 33 33 32 32 32 32 32 31 30 29 28 29 29 31 32 33 34 34 35 36 36 35 35 35
9 9 9 10 11 11 12 13 14 15 15 17 18 19 20 20 21 22 23 24 25 26 27 28 28 28 28 28 28 29 30 31 32 32 33 33 32 32 33 33 34 33 32 32 32 33 32 30 28 27 27 27 28 29 30 31 32 34 36 36 36 37 36
9 11 10 11 11 12 13 14 15 16 16 17 18 20 21 21 22 23 23 25 26 27 27 28 28 29 29 29 29 30 31 32 33 34 34 34 34 34 33 34 34 34 33 33 33 33 32 30 27 25 26 27 27 27 28 29 29 30 32 34 36 37 38
8 11 11 12 13 13 14 15 16 17 18 18 19 20 21 22 23 24 25 25 26 27 28 28 29 29 30 29 29 30 30 31 33 33 34 34 35 35 35 34 35 35 34 34 34 33 31 29 27 26 26 26 27 28 29 29 29 28 29 32 36 37 38
9 10 11 11 13 14 16 16 17 18 19 20 21 22 22 23 24 25 26 26 27 28 28 29 30 31 31 31 30 30 30 31 32 33 34 34 34 35 35 35 35 35 35 35 34 32 30 27 26 26 26 27 27 29 30 30 29 28 28 29 33 36 38
10 11 12 12 13 14 16 17 17 18 19 20 21 23 24 24 25 26 27 27 28 29 29 30 31 32 32 32 31 31 31 31 32 33 34 33 33 34 34 34 34 35 35 35 34 31 28 26 25 26 27 27 28 29 31 31 31 31 30 29 30 33 37
10 12 13 13 13 15 16 17 17 18 19 21 22 23 24 25 26 27 28 29 29 29 30 31 32 32 32 32 32 31 31 31 32 33 34 33 33 33 34 34 33 34 34 35 33 30 26 25 25 27 28 29 30 31 31 32 33 33 33 32 31 31 33
11 11 13 14 14 15 17 17 18 20 21 22 23 24 25 26 27 28 29 29 30 30 31 31 32 33 33 32 32 31 31 32 33 34 34 34 33 33 33 33 33 32 32 33 32 29 26 25 26 28 30 31 32 32 33 33 33 34 34 33 33 32 31
13 13 14 15 15 16 17 18 19 20 22 23 25 26 27 28 28 29 29 30 31 31 31 32 32 33 33 32 32 32 32 32 33 34 34 34 34 33 33 33 33 32 31 31 30 29 27 27 28 30 31 32 33 33 33 32 33 34 34 34 34 34 31
15 15 16 17 17 18 19 20 21 22 24 26 27 27 28 29 30 30 31 31 31 31 32 33 33 33 33 33 32 32 32 32 33 34 34 34 34 34 33 33 33 32 31 30 29 28 28 29 30 31 31 32 32 33 33 32 32 33 33 33 35 35 32
18 18 19 19 20 20 22 23 24 25 26 28 29 29 30 30 31 31 32 32 32 32 33 34 34 34 34 34 33 32 32 32 33 34 35 35 34 34 34 34 33 33 32 30 29 28 29 30 31 32 32 32 32 32 32 32 33 33 34 33 34 35 33
20 20 21 22 22 23 24 26 27 28 28 30 31 31 31 32 32 33 33 33 33 34 34 35 35 35 35 34 34 33 33 33 33 34 35 35 35 34 34 34 34 33 32 31 30 30 29 30 31 32 33 33 32 32 32 33 33 34 34 34 34 35 34
23 23 24 25 25 26 27 28 29 30 31 32 32 33 33 33 34 34 34 34 34 35 35 36 36 35 35 35 35 34 34 33 34 35 36 36 35 35 34 34 34 34 33 32 31 31 31 31 31 32 33 34 34 33 33 33 33 34 34 35 35 35 35
26 26 28 28 28 28 29 30 31 32 32 33 33 34 35 35 35 35 35 35 36 36 36 37 37 36 36 36 36 35 34 34 35 36 36 36 36 35 35 35 35 35 34 33 33 32 32 31 31 31 32 34 35 34 34 33 33 34 34 35 35 35 35
25 26 29 30 30 30 31 32 32 33 34 34 35 35 36 36 36 36 37 37 37 37 37 37 37 37 36 36 36 35 35 35 36 36 36 37 36 36 36 36 36 35 35 34 34 34 33 32 32 32 32 33 34 35 35 34 34 34 34 34 35 36 36
25 26 28 29 30 31 32 33 33 34 34 35 36 36 36 37 37 37 37 38 38 38 37 37 37 37 37 37 36 36 36 36 36 37 37 37 37 36 36 36 36 36 35 35 34 34 34 33 33 33 32 33 33 35 35 34 34 34 34 34 35 35 36
27 28 29 29 30 31 32 33 34 34 35 35 36 36 37 37 37 37 38 38 38 38 37 36 36 37 37 37 36 36 36 37 37 37 37 37 37 37 37 37 37 36 36 36 35 35 35 34 34 34 34 33 33 34 35 35 34 34 34 34 34 35 36
29 30 30 31 31 31 32 33 33 34 36 36 36 37 37 38 38 38 38 38 38 38 37 36 36 37 37 37 36 36 37 37 38 38 37 37 37 37 38 37 37 37 37 36 36 35 35 35 35 34 34 34 34 34 34 34 34 34 34 34 34 35 36
31 32 33 33 33 33 33 34 33 34 36 36 36 37 38 39 38 38 38 38 38 37 36 36 36 36 37 36 36 37 37 38 39 38 38 38 37 37 38 38 38 38 37 37 36 36 35 35 35 35 35 35 35 35 35 35 34 34 34 35 35 34 34
32 33 33 34 35 35 35 34 34 36 37 37 37 38 38 39 38 38 38 38 37 37 36 37 36 36 36 36 36 38 38 39 39 39 39 39 38 38 38 38 38 38 38 37 37 36 36 36 36 36 36 36 36 35 35 35 35 35 35 35 34 34 33
31 31 32 34 35 35 35 35 35 36 37 37 38 38 39 39 38 38 37 37 37 37 37 37 36 35 36 36 38 39 39 39 39 39 39 40 39 39 38 38 38 38 38 38 38 37 37 37 37 37 36 37 37 36 35 35 35 35 35 34 34 33 32
31 32 33 34 35 36 36 35 36 37 37 38 38 38 38 38 38 37 37 36 37 37 37 36 36 36 37 38 39 39 40 39 40 40 40 40 40 39 39 38 38 38 38 38 38 39 39 38 38 38 37 37 37 37 36 35 35 35 34 34 34 32 31
31 32 34 34 35 36 36 36 37 38 38 38 38 38 37 37 37 37 36 36 36 36 36 35 36 37 39 39 39 40 40 40 40 40 40 40 40 40 39 39 39 39 39 39 39 40 40 39 39 39 38 37 37 37 36 35 34 34 33 33 32 31 30
31 32 34 34 35 36 36 36 37 38 38 38 38 38 37 37 36 36 36 35 35 35 35 36 38 39 39 40 40 40 40 40 40 40 40 40 40 40 40 40 40 40 40 40 40 40 40 39 39 38 37 37 36 36 35 34 33 32 32 31 31 30 30
31 32 33 34 35 36 36 37 37 37 37 37 37 37 36 36 36 35 35 34 34 35 36 38 38 39 40 40 40 40 40 40 40 40 41 41 41 41 41 42 42 42 41 40 40 39 38 37 37 36 36 36 36 35 34 33 32 31 30 29 29 29 29
32 33 34 35 35 36 37 37 37 37 36 35 35 35 35 35 35 35 34 35 36 37 38 39 39 40 41 41 41 41 41 41 40 41 41 41 42 42 42 42 42 41 40 39 39 38 37 36 35 34 34 34 34 33 32 31 31 30 30 29 27 27 28
33 33 34 35 35 36 36 36 35 35 35 34 34 34 34 34 34 34 35 36 37 38 39 40 41 41 41 41 41 41 41 41 41 42 42 42 42 42 41 40 40 39 38 38 38 37 36 35 33 33 33 33 32 31 30 30 29 28 28 28 26 25 26
33 33 34 34 35 35 35 34 34 33 33 33 32 32 32 33 33 35 36 37 38 39 40 41 41 41 41 41 41 41 42 42 42 43 42 42 41 40 39 39 38 37 36 37 37 37 36 34 32 31 31 31 31 30 29 29 28 28 27 27 26 25 25
33 33 33 34 33 33 33 32 32 31 31 31 31 31 32 33 34 35 36 37 39 40 41 41 41 41 41 41 41 42 43 43 43 43 42 41 41 39 38 37 37 36 35 35 35 35 35 33 32 30 30 30 30 29 28 27 28 28 27 26 27 26 25
32 32 33 32 32 32 31 31 30 30 29 29 30 31 33 34 35 36 37 39 40 40 41 41 41 41 41 42 43 43 43 43 43 43 42 42 41 39 38 36 35 34 34 34 34 33 32 32 31 31 30 29 29 29 28 27 26 27 26 26 26 26 25
31 32 31 31 31 31 30 29 29 28 28 29 30 32 34 35 36 37 38 39 40 40 41 41 41 41 42 43 43 43 43 44 44 43 43 42 40 39 37 35 33 32 32 33 33 32 30 30 30 30 31 30 29 28 28 27 26 25 25 25 25 24 24
Wind_Direction
261 284 294 300 310 320 323 324 323 323 325 329 335 340 344 346 346 346 344 344 343 341 339 336 334 332 331 330 330 330 331 330 329 327 325 323 321 318 316 314 312 310 307 305 303 300 298 297 295 292 290 288 286 282 277 273 269 264 257 251 247 246 245
279 288 297 309 317 321 321 322 323 321 323 328 331 338 342 341 341 342 341 341 341 339 337 334 332 330 328 328 328 329 329 329 327 326 324 322 319 317 315 313 311 308 305 303 300 297 294 292 289 287 285 283 280 278 275 274 272 269 262 254 249 246 244
284 291 304 322 323 322 321 319 318 317 320 323 328 335 337 337 337 338 340 340 340 338 336 333 331 329 328 327 327 328 328 327 325 324 322 321 319 317 315 313 310 308 305 302 299 296 292 289 286 283 281 278 276 274 272 271 270 268 266 261 256 251 248
290 305 316 323 323 322 319 315 314 316 318 322 328 333 333 332 333 336 339 339 339 337 335 333 330 328 327 326 326 327 327 326 325 323 322 320 319 317 316 314 312 310 307 304 301 297 293 290 286 283 280 277 274 271 268 267 266 266 265 264 262 257 252
285 308 321 326 326 322 315 313 313 314 317 322 327 329 329 329 331 334 337 338 338 336 334 333 330 328 326 325 325 325 325 325 324 323 322 321 320 319 317 316 314 312 310 307 304 300 296 292 288 284 282 279 275 270 266 263 263 264 263 262 261 258 254
296 313 323 325 323 321 315 313 314 314 317 322 326 327 327 327 329 331 334 336 335 335 334 333 331 328 326 324 323 323 323 324 323 323 322 321 321 320 318 317 315 313 311 309 306 303 300 296 291 287 283 281 278 274 268 263 259 259 260 259 258 257 255
311 311 318 316 313 314 307 304 307 309 313 318 321 322 323 324 326 329 331 333 333 333 334 333 331 329 326 324 323 322 322 322 322 322 322 321 321 320 318 317 315 314 312 309 307 305 302 298 294 290 287 283 280 277 274 268 262 257 255 255 256 256 255
311 307 317 315 310 308 298 294 298 301 306 311 312 315 317 320 323 326 328 329 330 331 332 332 330 328 326 323 322 321 321 321 321 321 321 320 320 319 318 317 315 313 311 309 307 305 302 299 295 291 289 287 285 283 280 275 269 263 257 253 252 252 253
313 315 320 317 314 312 306 304 304 304 307 308 309 312 315 318 321 323 325 326 327 328 329 330 328 326 324 322 320 320 320 321 322 321 320 319 319 318 317 316 314 312 311 309 307 303 300 297 293 290 289 289 289 289 287 283 276 269 263 257 252 250 251
317 315 317 316 315 312 307 305 303 303 306 306 308 310 313 317 319 320 322 322 323 325 326 327 326 324 322 319 318 318 319 320 321 320 320 319 318 318 317 315 314 312 311 309 306 302 297 292 288 287 287 289 290 292 292 290 283 275 270 263 257 253 252
316 310 311 314 313 311 308 306 306 307 308 309 310 310 312 315 316 317 319 319 320 321 323 324 323 322 320 317 315 315 315 317 318 318 318 317 317 317 316 315 314 312 311 309 306 301 294 288 284 283 286 289 291 291 292 292 290 285 279 270 262 256 252
311 302 306 312 312 311 308 307 308 309 310 311 311 311 311 312 313 314 315 316 317 319 320 321 320 319 318 316 314 312 312 314 316 316 316 315 315 316 316 315 314 312 311 310 307 302 294 285 280 281 285 288 290 291 291 291 290 288 285 278 268 259 253
308 303 307 310 309 307 304 305 308 308 309 309 309 310 310 310 312 312 313 314 315 316 318 318 318 317 316 315 312 310 310 311 313 314 314 314 313 314 315 315 314 313 312 311 308 302 293 284 279 280 284 287 289 289 289 288 287 285 284 283 277 265 255
302 305 306 305 306 304 301 304 308 309 311 311 310 310 309 309 311 311 312 312 312 314 315 315 315 315 314 312 310 308 308 309 312 313 313 312 312 312 313 314 314 313 312 311 308 301 293 284 280 281 285 288 289 289 287 285 284 283 281 281 281 273 261
293 297 299 300 301 302 302 305 309 311 312 312 311 310 310 310 310 310 310 310 310 312 312 312 312 311 311 310 308 306 306 307 310 312 312 311 311 311 312 313 314 313 312 310 306 299 292 285 281 283 286 289 290 288 286 284 282 282 280 279 280 278 269
288 290 292 294 294 296 299 301 305 308 310 310 310 310 310 310 309 309 308 308 308 310 310 310 309 309 309 308 307 305 305 305 308 310 311 310 309 309 310 311 313 313 312 310 304 296 289 285 283 284 286 289 290 288 286 284 281 280 280 279 279 279 276
282 285 288 291 293 295 298 300 304 308 310 310 309 309 310 309 308 308 307 307 307 308 308 308 307 307 307 307 306 304 303 303 306 308 309 309 308 308 308 310 312 313 313 311 305 295 286 282 281 283 286 288 290 289 286 284 281 280 279 279 279 278 278
277 282 286 289 292 297 300 302 305 308 308 308 307 308 309 308 307 307 307 307 307 307 307 307 306 306 306 306 305 303 301 302 304 306 307 307 307 307 307 308 310 312 313 312 308 300 290 283 281 282 285 288 289 289 287 284 282 280 279 278 278 277 277
276 280 284 287 290 295 299 301 302 304 305 305 306 307 308 307 307 307 307 307 308 308 307 306 306 306 306 306 305 303 301 302 303 304 305 305 306 307 307 308 308 310 312 312 310 305 298 291 285 283 283 286 288 288 286 284 282 280 279 277 277 276 276
280 281 283 286 289 293 296 298 300 302 302 303 304 305 306 306 306 307 308 308 308 308 307 306 305 305 305 305 304 303 302 302 302 303 303 304 305 306 307 307 307 307 308 309 309 307 303 299 293 288 285 283 285 286 286 284 282 280 279 277 275 275 274
283 285 286 286 289 293 295 295 297 299 300 302 304 305 306 306 307 308 308 308 308 307 306 305 304 304 304 304 303 302 302 301 302 302 302 303 304 306 307 307 306 305 305 306 307 306 304 302 298 294 290 285 283 283 284 284 282 281 280 278 275 274 273
284 287 288 289 291 293 293 294 296 298 299 302 303 305 306 306 307 308 308 308 307 306 304 303 303 303 303 303 302 301 301 301 301 301 302 302 303 304 305 305 305 304 304 303 304 304 304 303 300 298 295 289 284 282 281 282 282 281 281 278 275 273 272
285 285 285 289 292 292 293 295 297 298 300 302 304 305 306 307 307 308 308 307 306 304 303 302 302 302 302 302 301 300 300 300 301 302 302 302 302 303 304 304 304 303 303 302 302 302 303 303 301 299 298 294 288 283 281 281 282 281 280 279 276 273 270
289 287 287 289 291 292 294 295 297 299 300 301 303 305 306 306 307 307 306 305 304 303 302 301 300 300 300 300 300 299 299 301 301 302 302 302 302 302 302 302 302 302 302 301 300 300 301 301 301 300 299 297 293 286 282 281 282 281 280 278 276 273 270
289 289 289 289 290 292 293 294 297 300 300 301 304 305 305 305 305 305 304 302 301 301 300 299 299 299 299 299 298 299 300 301 302 302 302 301 302 302 301 301 301 301 301 300 299 299 299 299 299 300 299 299 296 290 285 283 282 282 281 278 275 272 270
292 293 294 293 292 294 294 295 299 301 300 302 304 304 304 304 303 303 301 300 299 298 298 298 298 298 298 298 298 299 301 302 302 302 302 301 301 301 301 300 300 300 299 299 298 298 297 297 297 298 298 298 297 293 288 285 284 284 282 279 276 272 270
293 295 297 296 296 297 298 300 302 301 301 302 303 302 302 302 301 301 299 298 298 297 297 298 298 297 298 298 299 301 301 302 302 302 302 302 301 301 300 299 299 299 298 298 297 297 296 296 296 296 296 296 296 294 290 286 285 285 282 280 276 272 269
293 295 295 296 296 297 299 301 301 300 300 301 301 301 301 300 300 299 298 297 297 297 298 298 298 298 298 300 301 302 302 302 302 302 302 302 301 300 299 298 298 298 297 297 296 296 295 295 294 294 293 293 293 292 290 287 286 285 282 279 275 271 267
296 296 296 296 297 298 299 300 299 299 299 300 300 299 299 299 298 298 297 297 298 298 299 299 299 300 301 302 302 303 303 303 303 302 302 301 300 300 299 298 298 298 297 297 296 295 294 294 293 292 291 290 290 290 288 286 285 284 282 278 275 271 267
297 296 296 297 298 298 298 299 299 299 299 299 298 298 297 297 297 297 297 298 298 299 300 301 302 302 303 303 304 304 304 304 303 302 301 300 300 300 299 299 298 298 297 296 295 294 293 292 291 290 289 288 287 287 287 285 284 285 284 280 276 271 265
296 295 295 296 296 297 297 298 298 298 298 297 298 298 297 297 297 297 298 299 300 301 302 303 303 303 304 304 305 304 304 303 302 302 301 300 300 300 300 299 299 298 297 296 294 293 292 291 290 289 288 286 285 285 285 284 284 284 283 281 277 272 267
295 295 295 295 296 296 296 296 296 296 296 297 297 297 297 297 298 299 301 302 303 303 304 304 304 304 305 305 305 305 304 303 302 302 301 301 301 300 300 300 299 298 297 295 294 293 291 290 290 288 286 285 284 284 284 284 283 282 281 277 273 269 265
294 294 294 294 294 294 295 295 295 295 296 296 297 297 298 299 301 302 303 304 305 305 305 306 305 306 306 306 306 305 304 303 302 302 302 302 301 301 300 300 299 298 297 296 295 294 293 292 290 287 285 284 283 283 283 282 281 280 278 274 269 266 263
292 292 292 292 292 293 293 294 295 296 297 297 298 300 301 302 303 304 305 306 306 306 307 307 307 307 307 306 305 304 304 303 303 303 302 302 301 301 300 300 299 298 298 297 296 295 294 293 291 287 284 283 282 282 282 280 279 277 276 273 270 266 261
291 291 291 291 292 293 294 295 297 298 299 299 301 302 303 304 305 306 306 307 307 308 308 308 308 308 307 306 306 305 305 304 304 304 303 302 302 301 300 299 298 298 298 297 296 296 295 293 291 287 284 283 282 281 280 280 279 277 274 271 267 262 258
291 292 292 293 294 295 296 298 298 299 300 301 303 304 304 305 306 307 308 309 309 309 309 308 308 308 308 307 307 306 306 306 305 305 304 302 301 300 299 298 298 298 297 296 295 295 294 293 291 288 285 283 283 282 281 280 278 277 274 268 262 259 255
293 294 295 295 296 297 298 299 299 300 302 304 305 306 306 307 308 309 310 310 310 310 310 309 309 309 309 308 308 308 308 307 306 305 303 301 300 298 297 296 296 296 296 294 292 292 292 292 291 289 286 284 284 284 283 281 278 276 274 267 260 257 255
295 296 296 297 298 298 299 299 301 303 305 306 307 307 308 309 310 311 311 312 312 311 311 311 311 311 311 311 310 310 309 308 306 304 302 300 299 297 295 294 293 293 293 292 291 290 290 290 289 289 288 287 286 286 285 283 280 277 272 265 259 257 256